Denver, CO

7:09 AM MDT on April 26, 2017 (GMT -0600)
Denver International

Weather History for KDEN - August, 2014

Change the Weather History Date:

Tuesday, August 19, 2014

  Actual Average Record
Temperature  
Mean Temperature 73 °F 72 °F  
Max Temperature 91 °F 87 °F 97 °F (1986)
Min Temperature 55 °F 58 °F 47 °F (2015)
Degree Days  
Heating Degree Days 0 0  
Month to date heating degree days 0 0  
Since 1 June heating degree days 35 68  
Since 1 July heating degree days 5 6  
Cooling Degree Days 8 7  
Month to date cooling degree days 149 169  
Year to date cooling degree days 580 613  
Since 1 June cooling degree days 559 591  
Growing Degree Days 26 (Base 50)    
Moisture  
Dew Point 49 °F    
Average Humidity 51    
Maximum Humidity 84    
Minimum Humidity 17    
Precipitation  
Precipitation 0.11 in 0.04 in 1.05 in (1979)
Month to date precipitation 0.98 1.20  
Year to date precipitation 13.36 10.87  
Snow  
Snow 0.00 in - - ()
Month to date snowfall 0  
Since 1 June snowfall 0  
Since 1 July snowfall 0  
Snow Depth 0.00 in    
Sea Level Pressure  
Sea Level Pressure 29.76 in    
Wind  
Wind Speed 9 mph (SW)    
Max Wind Speed 37 mph    
Max Gust Speed 46 mph    
Visibility 9 miles    
Events Rain , Thunderstorm    
T = Trace of Precipitation, MM = Missing Value Source: NWS Daily Summary

Daily Weather History Graph

Daily Weather History Graph

Search for Another Location

Airport or City:

Trip Planner

Search our weather history database for the weather conditions in past years. The results will help you decide how hot, cold, wet, or windy it might be!

Date:

Astronomy

Aug. 19, 2014 Rise Set
Actual Time 6:14 AM MDT 7:49 PM MDT
Civil Twilight 5:45 AM MDT 8:17 PM MDT
Nautical Twilight 5:11 AM MDT 8:52 PM MDT
Astronomical Twilight 4:34 AM MDT 9:28 PM MDT
Moon 1:08 AM MDT (8/19) 3:47 PM MDT (8/19)
Length of Visible Light 14h 32m
Length of Day
13h 35m
Waning Crescent, 28% of the Moon is Illuminated
Aug 19
Waning Crescent
Aug 25
New
Sep 2
First Quarter
Sep 8
Full
Sep 15
Last Quarter

Hourly Weather History & Observations

Time (MDT) Temp. Dew Point Humidity Pressure Visibility Wind Dir Wind Speed Gust Speed Precip Events Conditions
12:53 AM 64.0 °F 46.0 °F 52% 29.83 in 10.0 mi Calm Calm - N/A   Scattered Clouds
1:53 AM 55.9 °F 46.9 °F 72% 29.82 in 10.0 mi South 12.7 mph - N/A   Scattered Clouds
2:53 AM 60.8 °F 46.4 °F 59% 30.04 in 10.0 mi SSW 8.1 mph - N/A   Scattered Clouds
3:53 AM 55.0 °F 48.0 °F 77% 29.80 in 10.0 mi SSW 9.2 mph - N/A   Scattered Clouds
4:53 AM 55.9 °F 46.9 °F 72% 29.78 in 10.0 mi SSW 4.6 mph - N/A   Partly Cloudy
5:53 AM 63.0 °F 46.0 °F 54% 29.74 in 10.0 mi SSW 11.5 mph - N/A   Mostly Cloudy
6:53 AM 60.1 °F 46.9 °F 62% 29.78 in 10.0 mi WSW 9.2 mph - N/A   Mostly Cloudy
7:53 AM 64.0 °F 46.0 °F 52% 29.78 in 10.0 mi WSW 11.5 mph - N/A   Mostly Cloudy
8:53 AM 71.1 °F 46.9 °F 42% 29.76 in 10.0 mi SW 6.9 mph - N/A   Mostly Cloudy
9:53 AM 75.0 °F 48.0 °F 38% 29.77 in 10.0 mi SSW 5.8 mph - N/A   Mostly Cloudy
10:53 AM 77.0 °F 46.0 °F 33% 29.76 in 10.0 mi SE 3.5 mph - N/A   Mostly Cloudy
11:53 AM 82.9 °F 44.1 °F 25% 29.72 in 10.0 mi Calm Calm - N/A   Mostly Cloudy
12:53 PM 88.0 °F 43.0 °F 21% 29.68 in 10.0 mi North 6.9 mph - N/A   Mostly Cloudy
1:53 PM 88.0 °F 39.9 °F 18% 29.69 in 10.0 mi ENE 6.9 mph - N/A   Mostly Cloudy
2:53 PM 90.0 °F 39.9 °F 17% 29.64 in 10.0 mi North 8.1 mph 17.3 mph N/A   Mostly Cloudy
3:53 PM 84.9 °F 41.0 °F 21% 29.67 in 10.0 mi NNW 9.2 mph - N/A Thunderstorm Thunderstorm
4:02 PM 80.1 °F 43.0 °F 27% 29.91 in 2.5 mi West 25.3 mph 35.7 mph N/A Thunderstorm Unknown
4:07 PM 77.0 °F 46.0 °F 33% 29.91 in 5.0 mi West 35.7 mph 46.0 mph 0.00 in Rain , Thunderstorm Light Thunderstorms and Rain
4:23 PM 68.0 °F 59.0 °F 73% 29.93 in 2.0 mi WSW 21.9 mph 31.1 mph 0.05 in Rain , Thunderstorm Light Thunderstorms and Rain
4:34 PM 68.0 °F 60.1 °F 76% 29.95 in 4.0 mi SW 17.3 mph - 0.10 in Rain , Thunderstorm Heavy Thunderstorms and Rain
4:53 PM 69.1 °F 57.0 °F 65% 29.76 in 10.0 mi SW 19.6 mph 28.8 mph 0.11 in Rain , Thunderstorm Light Thunderstorms and Rain
5:53 PM 68.0 °F 54.0 °F 61% 29.74 in 10.0 mi ESE 17.3 mph 26.5 mph 0.00 in Rain Light Rain
6:53 PM 71.1 °F 52.0 °F 51% 29.71 in 10.0 mi NE 9.2 mph - 0.00 in   Overcast
7:53 PM 68.0 °F 54.0 °F 61% 29.73 in 10.0 mi SW 12.7 mph - N/A   Mostly Cloudy
8:53 PM 66.9 °F 55.0 °F 66% 29.71 in 10.0 mi SSW 9.2 mph - N/A   Mostly Cloudy
9:53 PM 66.0 °F 55.9 °F 70% 29.69 in 10.0 mi West 5.8 mph - N/A   Mostly Cloudy
10:53 PM 63.0 °F 57.0 °F 81% 29.71 in 10.0 mi SSE 9.2 mph - N/A   Mostly Cloudy
11:53 PM 64.9 °F 55.9 °F 73% 29.68 in 10.0 mi SSE 5.8 mph - N/A   Mostly Cloudy